| time (UTC) | temp F | wind direction | speed knots | gust knots | rain 1hr in | rain 24hr in | rain mn in | humidity % | barometer mb |
| 20260507192127 | 53 | 331 | 1.7 | 5.2 | 0.00 | 0.00 | 0.00 | 86 | 1009.8 |
| 20260507191107 | 53 | 332 | 1.7 | 3.5 | 0.00 | 0.00 | 0.00 | 86 | 1009.9 |
| 20260507190107 | 52 | 291 | 3.5 | 7.8 | 0.01 | 0.00 | 0.00 | 84 | 1010.2 |
| 20260507185107 | 52 | 74 | 1.7 | 4.3 | 0.01 | 0.00 | 0.00 | 87 | 1010.7 |
| 20260507184106 | 52 | 231 | 1.7 | 7.0 | 0.02 | 0.00 | 0.00 | 87 | 1010.6 |
| 20260507183126 | 52 | 302 | 2.6 | 6.1 | 0.03 | 0.00 | 0.00 | 88 | 1010.7 |
| 20260507182128 | 52 | 293 | 2.6 | 8.7 | 0.04 | 0.00 | 0.00 | 92 | 1010.1 |
| 20260507181108 | 52 | 315 | 1.7 | 3.5 | 0.06 | 0.00 | 0.00 | 93 | 1010.5 |
| 20260507180108 | 52 | 309 | 2.6 | 5.2 | 0.06 | 0.00 | 0.00 | 94 | 1010.3 |
| 20260507175108 | 53 | 327 | 2.6 | 5.2 | 0.06 | 0.00 | 0.00 | 94 | 1010.8 |
| 20260507174107 | 53 | 304 | 2.6 | 7.0 | 0.07 | 0.00 | 0.00 | 95 | 1011.0 |
| 20260507173107 | 53 | 319 | 2.6 | 5.2 | 0.08 | 0.00 | 0.00 | 95 | 1011.6 |
| 20260507172107 | 53 | 305 | 1.7 | 5.2 | 0.08 | 0.00 | 0.00 | 95 | 1012.0 |
| 20260507171107 | 53 | 301 | 1.7 | 5.2 | 0.09 | 0.00 | 0.00 | 95 | 1011.7 |
| 20260507170107 | 53 | 291 | 2.6 | 5.2 | 0.10 | 0.00 | 0.00 | 94 | 1011.7 |
| 20260507165126 | 53 | 300 | 1.7 | 4.3 | 0.10 | 0.00 | 0.00 | 94 | 1011.3 |
| 20260507164106 | 53 | 307 | 2.6 | 6.1 | 0.10 | 0.00 | 0.00 | 94 | 1011.3 |
| 20260507163108 | 54 | 296 | 1.7 | 5.2 | 0.11 | 0.00 | 0.00 | 95 | 1011.1 |
| 20260507162108 | 54 | 254 | 1.7 | 4.3 | 0.13 | 0.00 | 0.00 | 94 | 1011.5 |
| 20260507161108 | 54 | 336 | 1.7 | 5.2 | 0.14 | 0.00 | 0.00 | 94 | 1011.5 |
| 20260507160107 | 54 | 292 | 3.5 | 9.6 | 0.17 | 0.00 | 0.00 | 94 | 1011.5 |
| 20260507155108 | 55 | 307 | 3.5 | 7.8 | 0.17 | 0.00 | 0.00 | 95 | 1011.4 |
| 20260507154107 | 55 | 333 | 1.7 | 6.1 | 0.16 | 0.00 | 0.00 | 95 | 1010.8 |
| 20260507153107 | 55 | 320 | 4.3 | 9.6 | 0.14 | 0.00 | 0.00 | 94 | 1011.5 |
| 20260507152106 | 54 | 317 | 5.2 | 8.7 | 0.10 | 0.00 | 0.00 | 94 | 1011.8 |
| 20260507151127 | 54 | 318 | 4.3 | 10.4 | 0.07 | 0.00 | 0.00 | 93 | 1012.2 |
| 20260507150106 | 55 | 327 | 6.1 | 12.2 | 0.02 | 0.00 | 0.00 | 90 | 1012.1 |
| 20260507145108 | 55 | 329 | 7.0 | 12.2 | 0.01 | 0.00 | 0.00 | 90 | 1011.7 |
| 20260507144108 | 56 | 321 | 6.1 | 11.3 | 0.01 | 0.00 | 0.00 | 90 | 1011.8 |
| 20260507143128 | 57 | 313 | 5.2 | 10.4 | 0.01 | 0.00 | 0.00 | 88 | 1011.5 |
| 20260507142107 | 57 | 298 | 5.2 | 9.6 | 0.01 | 0.00 | 0.00 | 90 | 1011.4 |
| 20260507141107 | 57 | 334 | 1.7 | 7.8 | 0.01 | 0.00 | 0.00 | 91 | 1011.4 |
| 20260507140107 | 58 | 322 | 3.5 | 7.8 | 0.02 | 0.00 | 0.00 | 93 | 1011.2 |
| 20260507135107 | 59 | 297 | 2.6 | 9.6 | 0.04 | 0.00 | 0.00 | 95 | 1011.3 |
| 20260507134106 | 59 | 279 | 1.7 | 5.2 | 0.04 | 0.00 | 0.00 | 95 | 1011.1 |
| 20260507133108 | 59 | 311 | 5.2 | 10.4 | 0.05 | 0.00 | 0.00 | 95 | 1011.0 |
| 20260507132108 | 59 | 314 | 5.2 | 10.4 | 0.05 | 0.00 | 0.00 | 94 | 1011.0 |
| 20260507131108 | 59 | 337 | 4.3 | 10.4 | 0.07 | 0.00 | 0.00 | 94 | 1010.9 |
| 20260507130108 | 59 | 312 | 7.0 | 10.4 | 0.08 | 0.00 | 0.00 | 94 | 1011.3 |
| 20260507125129 | 59 | 327 | 5.2 | 12.2 | 0.07 | 0.00 | 0.00 | 94 | 1011.4 |
| 20260507124107 | 59 | 306 | 4.3 | 9.6 | 0.07 | 0.00 | 0.00 | 94 | 1011.2 |
| 20260507123127 | 59 | 327 | 6.1 | 9.6 | 0.07 | 0.00 | 0.00 | 94 | 1011.2 |
| 20260507122107 | 59 | 346 | 6.1 | 8.7 | 0.08 | 0.00 | 0.00 | 94 | 1011.3 |
| 20260507121107 | 59 | 328 | 5.2 | 11.3 | 0.06 | 0.00 | 0.00 | 93 | 1011.3 |
| 20260507120106 | 60 | 326 | 4.3 | 11.3 | 0.04 | 0.00 | 0.00 | 93 | 1011.4 |
| 20260507115108 | 59 | 347 | 5.2 | 13.0 | 0.05 | 0.00 | 0.00 | 93 | 1011.2 |
| 20260507114128 | 60 | 342 | 7.8 | 13.0 | 0.07 | 0.00 | 0.00 | 94 | 1011.1 |
| 20260507113108 | 60 | 322 | 5.2 | 9.6 | 0.08 | 0.00 | 0.00 | 95 | 1010.8 |
| 20260507112128 | 60 | 331 | 5.2 | 10.4 | 0.15 | 0.00 | 0.00 | 94 | 1011.1 |
| 20260507111107 | 64 | 313 | 4.3 | 9.6 | 0.25 | 0.00 | 0.00 | 95 | 1010.6 |
| 20260507110107 | 65 | 310 | 1.7 | 5.2 | 0.39 | 0.00 | 0.00 | 95 | 1010.3 |
| 20260507105107 | 65 | 286 | 1.7 | 4.3 | 0.47 | 0.00 | 0.00 | 95 | 1010.3 |
| 20260507104107 | 65 | 302 | 1.7 | 5.2 | 0.45 | 0.00 | 0.00 | 95 | 1010.1 |
| 20260507103107 | 65 | 185 | 0.9 | 5.2 | 0.43 | 0.00 | 0.00 | 94 | 1010.1 |
| 20260507102106 | 65 | 231 | 1.7 | 7.0 | 0.34 | 0.00 | 0.00 | 94 | 1010.0 |
| 20260507101106 | 65 | 239 | 0.9 | 5.2 | 0.25 | 0.00 | 0.00 | 94 | 1010.1 |
| 20260507100128 | 66 | 292 | 2.6 | 5.2 | 0.20 | 0.00 | 0.00 | 93 | 1010.0 |
| 20260507095108 | 66 | 257 | 1.7 | 4.3 | 0.14 | 0.00 | 0.00 | 92 | 1009.3 |
| 20260507094108 | 66 | 171 | 1.7 | 3.5 | 0.14 | 0.00 | 0.00 | 92 | 1009.1 |
| 20260507093128 | 66 | 61 | 1.7 | 4.3 | 0.14 | 0.00 | 0.00 | 91 | 1009.1 |
| 20260507092107 | 66 | 80 | 2.6 | 6.1 | 0.14 | 0.00 | 0.00 | 90 | 1009.3 |
| 20260507091107 | 68 | 158 | 3.5 | 9.6 | 0.10 | 0.00 | 0.00 | 85 | 1009.3 |
| 20260507090107 | 69 | 155 | 3.5 | 7.8 | 0.01 | 0.00 | 0.00 | 81 | 1009.5 |
| 20260507085107 | 69 | 169 | 2.6 | 6.1 | 0.00 | 0.00 | 0.00 | 80 | 1009.5 |
| 20260507084107 | 69 | 166 | 4.3 | 13.0 | 0.00 | 0.00 | 0.00 | 80 | 1009.6 |
| 20260507083126 | 69 | 169 | 4.3 | 7.8 | 0.00 | 0.00 | 0.00 | 80 | 1009.6 |
| 20260507082106 | 69 | 159 | 3.5 | 7.8 | 0.00 | 0.00 | 0.00 | 79 | 1009.7 |
| 20260507081106 | 69 | 162 | 3.5 | 8.7 | 0.00 | 0.00 | 0.00 | 79 | 1009.8 |
| 20260507080108 | 69 | 155 | 3.5 | 8.7 | 0.00 | 0.00 | 0.00 | 79 | 1009.9 |
| 20260507075108 | 69 | 170 | 3.5 | 6.1 | 0.00 | 0.00 | 0.00 | 80 | 1010.2 |
| 20260507074148 | 69 | 174 | 2.6 | 7.0 | 0.00 | 0.00 | 0.00 | 80 | 1010.1 |
| 20260507073108 | 69 | 170 | 2.6 | 4.3 | 0.00 | 0.00 | 0.00 | 80 | 1010.1 |
| 20260507072107 | 69 | 157 | 1.7 | 5.2 | 0.01 | 0.00 | 0.00 | 80 | 1010.1 |
| 20260507071107 | 68 | 162 | 2.6 | 5.2 | 0.01 | 0.00 | 0.00 | 80 | 1010.1 |
| 20260507070148 | 68 | 177 | 2.6 | 5.2 | 0.01 | 0.00 | 0.00 | 80 | 1009.9 |
| 20260507065147 | 68 | 163 | 1.7 | 7.0 | 0.02 | 0.00 | 0.00 | 80 | 1009.6 |
| 20260507064127 | 69 | 181 | 2.6 | 4.3 | 0.02 | 0.00 | 0.00 | 80 | 1009.4 |
| 20260507063106 | 69 | 185 | 0.9 | 3.5 | 0.02 | 0.00 | 0.00 | 79 | 1009.5 |
| 20260507062126 | 69 | 175 | 2.6 | 7.0 | 0.02 | 0.00 | 0.00 | 78 | 1010.1 |
| 20260507061148 | 69 | 180 | 2.6 | 7.0 | 0.01 | 0.00 | 0.00 | 78 | 1010.7 |
| 20260507060108 | 69 | 171 | 2.6 | 6.1 | 0.01 | 0.00 | 0.00 | 78 | 1010.9 |
| 20260507055107 | 69 | 182 | 0.9 | 6.1 | 0.01 | 0.00 | 0.00 | 77 | 1010.9 |
| 20260507054108 | 70 | 166 | 0.9 | 4.3 | 0.00 | 0.00 | 0.00 | 75 | 1011.0 |
| 20260507053108 | 70 | 177 | 2.6 | 6.1 | 0.00 | 0.00 | 0.00 | 74 | 1011.1 |
| 20260507052107 | 70 | 181 | 2.6 | 5.2 | 0.00 | 0.00 | 0.00 | 73 | 1011.1 |
| 20260507051107 | 71 | 154 | 2.6 | 6.1 | 0.00 | 0.00 | 0.00 | 70 | 1011.2 |
| 20260507050107 | 71 | 179 | 3.5 | 6.1 | 0.00 | 0.00 | 0.00 | 70 | 1010.7 |
| 20260507045107 | 72 | 182 | 2.6 | 5.2 | 0.00 | 0.00 | 0.00 | 68 | 1010.7 |
| 20260507044107 | 72 | 179 | 2.6 | 7.8 | 0.00 | 0.00 | 0.00 | 68 | 1010.7 |
| 20260507043106 | 72 | 179 | 2.6 | 7.0 | 0.00 | 0.00 | 0.00 | 68 | 1011.0 |
| 20260507042128 | 72 | 188 | 2.6 | 4.3 | 0.00 | 0.00 | 0.00 | 67 | 1010.9 |
| 20260507041108 | 72 | 184 | 1.7 | 4.3 | 0.00 | 0.00 | 0.00 | 67 | 1010.8 |
| 20260507040108 | 71 | 176 | 0.9 | 4.3 | 0.00 | 0.00 | 0.00 | 68 | 1010.8 |
| 20260507035108 | 72 | 191 | 0.9 | 2.6 | 0.00 | 0.00 | 0.00 | 67 | 1010.4 |
| 20260507034107 | 71 | 164 | 0.0 | 3.5 | 0.00 | 0.00 | 0.00 | 67 | 1010.3 |
| 20260507033107 | 72 | 153 | 0.0 | 2.6 | 0.00 | 0.00 | 0.00 | 67 | 1010.4 |
| 20260507032107 | 72 | 198 | 0.9 | 3.5 | 0.00 | 0.00 | 0.00 | 66 | 1010.3 |
| 20260507031128 | 72 | 176 | 1.7 | 3.5 | 0.00 | 0.00 | 0.00 | 65 | 1010.7 |
| 20260507030107 | 73 | 185 | 1.7 | 5.2 | 0.00 | 0.00 | 0.00 | 65 | 1011.0 |
| 20260507025127 | 73 | 192 | 0.9 | 4.3 | 0.00 | 0.00 | 0.00 | 65 | 1011.1 |
| 20260507024108 | 73 | 187 | 1.7 | 4.3 | 0.00 | 0.00 | 0.00 | 64 | 1011.2 |
| 20260507023129 | 73 | 189 | 1.7 | 5.2 | 0.00 | 0.00 | 0.00 | 65 | 1011.0 |
| 20260507022108 | 73 | 187 | 1.7 | 6.1 | 0.00 | 0.00 | 0.00 | 65 | 1011.1 |
| 20260507021128 | 73 | 185 | 1.7 | 5.2 | 0.00 | 0.00 | 0.00 | 65 | 1011.0 |
| 20260507020106 | 73 | 176 | 1.7 | 2.6 | 0.00 | 0.00 | 0.00 | 63 | 1011.2 |
| 20260507015109 | 73 | 169 | 2.6 | 3.5 | 0.00 | 0.00 | 0.00 | 62 | 1011.2 |
| 20260507014148 | 74 | 188 | 2.6 | 3.5 | 0.00 | 0.00 | 0.00 | 62 | 1011.2 |
| 20260507013108 | 74 | 191 | 1.7 | 4.3 | 0.00 | 0.00 | 0.00 | 61 | 1010.9 |
| 20260507012108 | 74 | 186 | 2.6 | 4.3 | 0.00 | 0.00 | 0.00 | 61 | 1011.0 |
| 20260507011105 | 74 | 183 | 1.7 | 5.2 | 0.00 | 0.00 | 0.00 | 60 | 1011.1 |
| 20260507010121 | 74 | 191 | 1.7 | 3.5 | 0.00 | 0.00 | 0.00 | 60 | 1011.2 |
| 20260507005118 | 75 | 174 | 1.7 | 3.5 | 0.00 | 0.00 | 0.00 | 58 | 1011.2 |
| 20260507004056 | 75 | 180 | 1.7 | 3.5 | 0.00 | 0.00 | 0.00 | 58 | 1011.0 |
| 20260507003054 | 75 | 180 | 1.7 | 4.3 | 0.00 | 0.00 | 0.00 | 57 | 1010.8 |
| 20260507002130 | 76 | 162 | 1.7 | 5.2 | 0.00 | 0.00 | 0.00 | 56 | 1010.7 |
| 20260507001048 | 76 | 202 | 2.6 | 4.3 | 0.00 | 0.00 | 0.00 | 56 | 1010.6 |
| 20260507000046 | 76 | 184 | 2.6 | 5.2 | 0.00 | 0.00 | 0.00 | 55 | 1010.5 |
| 20260506235044 | 76 | 177 | 2.6 | 6.1 | 0.00 | 0.00 | 0.00 | 54 | 1010.5 |
| 20260506234041 | 77 | 180 | 1.7 | 5.2 | 0.00 | 0.00 | 0.00 | 54 | 1010.3 |
| 20260506233037 | 77 | 188 | 0.9 | 3.5 | 0.00 | 0.00 | 0.00 | 54 | 1010.3 |
| 20260506232035 | 77 | 178 | 2.6 | 5.2 | 0.00 | 0.00 | 0.00 | 53 | 1010.1 |
| 20260506231033 | 77 | 188 | 2.6 | 7.0 | 0.00 | 0.00 | 0.00 | 53 | 1010.2 |
| 20260506230029 | 77 | 194 | 1.7 | 4.3 | 0.00 | 0.00 | 0.00 | 54 | 1010.0 |
| 20260506225047 | 78 | 189 | 2.6 | 6.1 | 0.00 | 0.00 | 0.00 | 54 | 1010.1 |
| 20260506224025 | 78 | 166 | 2.6 | 5.2 | 0.00 | 0.00 | 0.00 | 54 | 1010.1 |
| 20260506223043 | 78 | 188 | 2.6 | 7.8 | 0.00 | 0.00 | 0.00 | 54 | 1010.2 |
| 20260506222018 | 78 | 172 | 4.3 | 7.8 | 0.00 | 0.00 | 0.00 | 54 | 1010.1 |
| 20260506221016 | 78 | 190 | 3.5 | 7.8 | 0.00 | 0.00 | 0.00 | 54 | 1010.0 |
| 20260506220108 | 78 | 185 | 2.6 | 6.1 | 0.00 | 0.00 | 0.00 | 54 | 1010.0 |
| 20260506215108 | 78 | 184 | 3.5 | 8.7 | 0.00 | 0.00 | 0.00 | 54 | 1009.8 |
| 20260506214128 | 78 | 179 | 5.2 | 7.0 | 0.00 | 0.00 | 0.00 | 53 | 1009.7 |
| 20260506213107 | 78 | 182 | 4.3 | 11.3 | 0.00 | 0.00 | 0.00 | 52 | 1010.0 |
| 20260506212107 | 78 | 181 | 4.3 | 13.0 | 0.00 | 0.00 | 0.00 | 52 | 1009.8 |
| 20260506211107 | 78 | 182 | 4.3 | 7.8 | 0.00 | 0.00 | 0.00 | 53 | 1009.8 |
| 20260506210127 | 78 | 195 | 2.6 | 9.6 | 0.00 | 0.00 | 0.00 | 53 | 1009.9 |
| 20260506205107 | 78 | 179 | 4.3 | 9.6 | 0.00 | 0.00 | 0.00 | 53 | 1010.1 |
| 20260506204106 | 78 | 176 | 3.5 | 7.8 | 0.00 | 0.00 | 0.00 | 52 | 1010.2 |
| 20260506203106 | 78 | 176 | 5.2 | 11.3 | 0.00 | 0.00 | 0.00 | 53 | 1010.5 |
| 20260506202108 | 78 | 167 | 5.2 | 10.4 | 0.00 | 0.00 | 0.00 | 54 | 1010.7 |
| 20260506201108 | 78 | 181 | 2.6 | 7.8 | 0.00 | 0.00 | 0.00 | 57 | 1011.0 |
| 20260506200107 | 78 | 189 | 2.6 | 8.7 | 0.00 | 0.00 | 0.00 | 57 | 1011.3 |
| 20260506195127 | 78 | 191 | 3.5 | 7.8 | 0.00 | 0.00 | 0.00 | 58 | 1011.5 |
| 20260506194107 | 78 | 185 | 4.3 | 11.3 | 0.00 | 0.00 | 0.00 | 57 | 1011.7 |
| 20260506193108 | 78 | 181 | 4.3 | 10.4 | 0.00 | 0.00 | 0.00 | 57 | 1011.7 |